CW6037 Weather Reports


Display with metric or nautical units.
time (UTC)temp
F
wind
direction
speed
MPH
gust
MPH
rain 1hr
in
rain 24hr
in
rain mn
in
humidity
%
barometer
mb
20180420162634 37 289 5.0 16.0 0.01 0.07 0.04 70 1022.3
20180420161734 37 316 3.0 16.0 0.01 0.07 0.04 68 1022.3
20180420160834 37 310 5.0 13.0 0.01 0.07 0.04 71 1022.4
20180420155934 36 297 6.0 18.0 0.01 0.07 0.04 69 1022.3
20180420155034 36 291 5.0 16.0 0.02 0.07 0.04 68 1022.3
20180420154134 36 299 4.0 19.0 0.02 0.06 0.03 69 1022.2
20180420153234 36 303 5.0 11.0 0.02 0.06 0.03 68 1022.2
20180420152334 36 303 2.0 9.0 0.03 0.06 0.03 69 1021.8
20180420151434 36 293 3.0 10.0 0.03 0.06 0.03 68 1021.8
20180420150534 36 338 3.0 15.0 0.03 0.07 0.03 71 1021.8
20180420145634 36 297 5.0 16.0 0.02 0.06 0.02 69 1021.3
20180420144734 36 342 3.0 9.0 0.02 0.07 0.02 68 1021.3
20180420143834 36 328 3.0 11.0 0.01 0.06 0.01 68 1021.2
20180420142934 35 327 3.0 17.0 0.00 0.05 0.00 69 1021.0
20180420142034 35 346 4.0 9.0 0.00 0.06 0.00 68 1021.0
20180420141134 35 305 2.0 12.0 0.00 0.06 0.00 70 1020.9
20180420140234 35 312 4.0 13.0 0.00 0.06 0.00 69 1020.9
20180420135334 34 285 5.0 14.0 0.00 0.06 0.00 71 1020.7
20180420134434 34 300 5.0 13.0 0.00 0.06 0.00 68 1020.6
20180420133534 34 305 3.0 9.0 0.00 0.07 0.00 70 1020.6
20180420132634 34 307 3.0 11.0 0.00 0.07 0.00 70 1020.3
20180420131734 34 347 3.0 10.0 0.00 0.08 0.00 70 1020.3
20180420130834 33 17 1.0 10.0 0.00 0.08 0.00 73 1020.2
20180420125934 33 290 2.0 9.0 0.00 0.08 0.00 74 1020.2
20180420125034 33 318 3.0 9.0 0.00 0.09 0.00 74 1020.2
20180420124134 33 301 3.0 9.0 0.00 0.09 0.00 72 1020.0
20180420123234 33 342 2.0 7.0 0.00 0.09 0.00 73 1020.0
20180420122334 33 344 3.0 7.0 0.00 0.10 0.00 71 1019.7
20180420121434 33 299 4.0 22.0 0.00 0.10 0.00 71 1019.7
20180420120534 33 308 2.0 8.0 0.00 0.10 0.00 72 1019.7
20180420115634 32 298 3.0 9.0 0.00 0.10 0.00 71 1019.6
20180420114734 32 310 4.0 15.0 0.00 0.10 0.00 72 1019.6
20180420113834 32 305 4.0 13.0 0.00 0.11 0.00 73 1019.4
20180420112934 32 310 3.0 16.0 0.00 0.11 0.00 74 1019.3
20180420112034 32 323 3.0 8.0 0.00 0.11 0.00 74 1019.3
20180420111134 32 308 2.0 6.0 0.00 0.11 0.00 75 1019.1
20180420110236 32 294 4.0 19.0 0.00 0.11 0.00 75 1019.1
20180420105334 32 300 3.0 10.0 0.00 0.11 0.00 75 1018.8
20180420104434 32 318 2.0 10.0 0.00 0.11 0.00 75 1018.5
20180420103534 32 296 4.0 13.0 0.00 0.11 0.00 76 1018.5
20180420102634 32 291 3.0 11.0 0.00 0.11 0.00 77 1018.1
20180420101734 32 299 2.0 8.0 0.00 0.11 0.00 77 1018.1
20180420100834 32 290 2.0 7.0 0.00 0.11 0.00 79 1017.9
20180420095934 32 292 3.0 9.0 0.00 0.11 0.00 78 1017.5
20180420095034 32 301 4.0 12.0 0.00 0.11 0.00 78 1017.5
20180420094134 32 296 4.0 13.0 0.00 0.11 0.00 79 1017.4
20180420093234 32 280 4.0 16.0 0.00 0.11 0.00 79 1017.4
20180420092334 32 296 2.0 9.0 0.00 0.11 0.00 78 1016.9
20180420091434 32 290 3.0 12.0 0.00 0.11 0.00 78 1016.9
20180420090534 32 311 1.0 6.0 0.00 0.11 0.00 80 1016.9
20180420085635 32 292 2.0 12.0 0.00 0.11 0.00 80 1016.9
20180420084734 32 279 4.0 12.0 0.00 0.11 0.00 80 1016.9
20180420083834 32 283 3.0 12.0 0.00 0.11 0.00 80 1016.6
20180420082934 32 283 1.0 4.0 0.00 0.11 0.00 81 1016.4
20180420082034 32 300 1.0 8.0 0.00 0.11 0.00 81 1016.4
20180420081134 32 324 2.0 7.0 0.00 0.11 0.00 80 1016.4
20180420080234 32 265 2.0 10.0 0.00 0.11 0.00 80 1016.4
20180420075334 32 286 2.0 6.0 0.00 0.11 0.00 80 1016.2
20180420074434 32 301 3.0 14.0 0.00 0.11 0.00 79 1015.9
20180420073534 32 284 2.0 9.0 0.00 0.11 0.00 79 1015.9
20180420072634 32 286 2.0 9.0 0.00 0.11 0.00 80 1015.9
20180420071734 32 305 3.0 9.0 0.00 0.11 0.00 80 1015.9
20180420070834 32 277 2.0 9.0 0.00 0.11 0.00 81 1015.7
20180420065934 32 288 2.0 7.0 0.00 0.11 0.00 82 1015.4
20180420065034 32 280 2.0 9.0 0.00 0.11 0.00 82 1015.4
20180420064134 32 291 2.0 7.0 0.00 0.11 0.00 83 1015.3
20180420063234 32 29 0.0 1.0 0.00 0.11 0.00 85 1015.3
20180420062334 32 318 1.0 5.0 0.00 0.11 0.00 85 1015.3
20180420061434 32 286 1.0 4.0 0.00 0.11 0.00 86 1015.3
20180420060534 32 276 1.0 6.0 0.00 0.11 0.00 85 1015.3
20180420055634 32 290 2.0 9.0 0.00 0.11 0.00 85 1015.4
20180420054734 32 305 2.0 9.0 0.00 0.11 0.00 85 1015.4
20180420053834 32 280 1.0 8.0 0.00 0.11 0.00 86 1015.3
20180420052934 32 295 2.0 6.0 0.00 0.11 0.00 86 1015.3
20180420052035 32 285 4.0 9.0 0.00 0.11 0.00 84 1015.3
20180420051134 32 281 2.0 9.0 0.00 0.11 0.00 84 1015.2
20180420050234 32 280 2.0 8.0 0.00 0.11 0.00 83 1015.2
20180420045334 32 284 3.0 13.0 0.00 0.11 0.00 83 1015.3
20180420044434 32 292 3.0 13.0 0.00 0.11 0.00 84 1015.1
20180420043534 32 282 2.0 8.0 0.00 0.11 0.00 85 1015.1
20180420042634 32 305 2.0 5.0 0.00 0.11 0.00 85 1014.9
20180420041734 32 288 2.0 7.0 0.00 0.11 0.00 85 1014.9
20180420040834 32 305 2.0 10.0 0.00 0.11 0.00 85 1014.9
20180420035934 33 289 1.0 5.0 0.00 0.11 0.11 86 1014.7
20180420035034 33 274 1.0 7.0 0.00 0.11 0.11 83 1014.7
20180420034134 33 291 1.0 3.0 0.00 0.11 0.11 82 1014.6
20180420033234 33 275 2.0 6.0 0.00 0.11 0.11 82 1014.6
20180420032334 33 298 2.0 9.0 0.00 0.11 0.11 81 1014.7
20180420031434 33 271 2.0 8.0 0.00 0.11 0.11 82 1014.6
20180420030534 34 288 1.0 7.0 0.00 0.11 0.11 82 1014.6
20180420025634 34 281 3.0 10.0 0.00 0.11 0.11 82 1014.6
20180420024734 34 280 2.0 9.0 0.00 0.11 0.11 83 1014.6
20180420023834 34 297 3.0 7.0 0.00 0.11 0.11 82 1014.4
20180420022934 34 267 1.0 7.0 0.00 0.11 0.11 82 1014.3
20180420021134 34 283 3.0 10.0 0.00 0.11 0.11 80 1014.3
20180420020234 33 305 1.0 6.0 0.00 0.11 0.11 81 1014.3
20180420015334 33 308 2.0 5.0 0.00 0.11 0.11 81 1014.1
20180420014434 33 285 1.0 8.0 0.00 0.11 0.11 82 1013.9
20180420013534 33 285 3.0 12.0 0.00 0.11 0.11 81 1013.9
20180420011734 34 284 2.0 8.0 0.00 0.11 0.11 83 1013.7
20180420010834 33 293 1.0 5.0 0.00 0.11 0.11 84 1013.3
20180420005034 33 280 2.0 8.0 0.00 0.11 0.11 87 1013.2
20180420003234 34 280 4.0 12.0 0.00 0.11 0.11 88 1012.8
20180420002334 34 302 3.0 11.0 0.00 0.11 0.11 88 1012.6
20180420001434 34 280 2.0 8.0 0.00 0.11 0.11 89 1012.4
20180420000535 35 285 0.0 1.0 0.00 0.11 0.11 88 1012.4
20180419235635 35 267 2.0 7.0 0.00 0.11 0.11 86 1012.1
20180419234734 35 292 3.0 7.0 0.00 0.11 0.11 85 1012.1
20180419233834 36 278 3.0 12.0 0.00 0.11 0.11 84 1012.0
20180419232934 36 287 3.0 8.0 0.00 0.11 0.11 83 1011.6
20180419232034 36 283 3.0 11.0 0.00 0.11 0.11 84 1011.6
20180419231134 36 253 2.0 6.0 0.00 0.11 0.11 83 1011.5
20180419230234 36 303 2.0 12.0 0.00 0.11 0.11 83 1011.5
20180419225334 36 293 2.0 12.0 0.00 0.11 0.11 82 1011.5
20180419224434 37 299 2.0 8.0 0.00 0.11 0.11 80 1011.0
20180419223534 37 342 3.0 9.0 0.00 0.11 0.11 77 1011.0
20180419222634 38 290 1.0 8.0 0.00 0.11 0.11 77 1010.9
20180419221734 37 291 2.0 10.0 0.00 0.11 0.11 77 1010.9
20180419220834 38 319 5.0 14.0 0.00 0.11 0.11 77 1010.6
20180419215934 38 297 5.0 12.0 0.00 0.11 0.11 70 1010.2
20180419215034 39 329 3.0 10.0 0.00 0.11 0.11 72 1010.2
20180419214134 39 331 3.0 10.0 0.00 0.11 0.11 72 1009.9
20180419213234 39 305 4.0 12.0 0.00 0.11 0.11 71 1009.9
20180419212334 40 308 4.0 12.0 0.00 0.11 0.11 72 1009.6
20180419211434 39 300 3.0 11.0 0.00 0.11 0.11 76 1009.3
20180419210534 38 300 4.0 13.0 0.00 0.11 0.11 75 1009.3
20180419205634 38 307 4.0 12.0 0.00 0.11 0.11 76 1009.2
20180419204734 38 308 5.0 14.0 0.00 0.11 0.11 76 1009.2
20180419203834 39 328 6.0 15.0 0.00 0.11 0.11 74 1008.4
20180419202934 40 309 5.0 12.0 0.00 0.11 0.11 75 1008.0
20180419202034 39 300 3.0 16.0 0.00 0.11 0.11 76 1008.0
20180419201134 39 327 4.0 10.0 0.00 0.11 0.11 76 1007.8
20180419200234 40 338 3.0 9.0 0.00 0.11 0.11 76 1007.8
20180419195334 41 328 3.0 9.0 0.00 0.11 0.11 75 1007.3
20180419194434 42 347 3.0 6.0 0.00 0.11 0.11 74 1007.3
20180419193534 42 318 2.0 8.0 0.00 0.11 0.11 79 1007.3
20180419192634 40 333 2.0 7.0 0.00 0.11 0.11 79 1007.3
20180419191734 40 347 3.0 8.0 0.01 0.11 0.11 79 1007.3
20180419190834 41 343 3.0 7.0 0.01 0.11 0.11 81 1007.3
20180419185934 42 313 4.0 13.0 0.01 0.11 0.11 83 1007.3
20180419185034 40 314 4.0 14.0 0.01 0.11 0.11 87 1007.3
20180419184134 39 325 4.0 15.0 0.01 0.11 0.11 89 1007.4
20180419183234 38 322 4.0 12.0 0.01 0.11 0.11 90 1007.4
20180419182334 38 295 2.0 6.0 0.01 0.11 0.11 93 1007.3
20180419181434 38 300 2.0 9.0 0.01 0.10 0.10 91 1006.8
20180419180534 39 298 5.0 11.0 0.01 0.10 0.10 88 1006.8
20180419175634 39 281 4.0 18.0 0.01 0.10 0.10 86 1006.3
20180419174734 39 303 1.0 6.0 0.01 0.10 0.10 89 1006.3
20180419173834 39 295 2.0 10.0 0.02 0.10 0.10 91 1006.1
20180419172934 39 295 3.0 13.0 0.02 0.11 0.10 91 1005.9
20180419172034 38 290 2.0 12.0 0.02 0.11 0.10 89 1005.9
20180419171134 39 337 1.0 4.0 0.01 0.10 0.09 91 1005.8
20180419170234 38 303 1.0 6.0 0.01 0.10 0.09 92 1005.8
20180419165334 38 294 1.0 6.0 0.01 0.10 0.09 91 1005.7
20180419164434 38 292 1.0 6.0 0.01 0.10 0.09 90 1005.4
20180419163534 38 278 1.0 8.0 0.00 0.09 0.08 90 1005.4